Time,TemperatureF,DewpointF,PressureIn,WindDirection,WindDirectionDegrees,WindSpeedMPH,WindSpeedGustMPH,Humidity,HourlyPrecipIn,Conditions,Clouds,dailyrainin,SoftwareType,DateUTC
2013-07-25 00:13:00,75.0,69.0,29.95,NNE,30,1.0,3.0,82,0.00,,,0.00,weatherlink.com 1.10,2013-07-25 05:13:00,
2013-07-25 00:28:00,74.7,69.0,29.95,ESE,110,2.0,4.0,81,0.00,,,0.00,weatherlink.com 1.10,2013-07-25 05:28:00,
2013-07-25 00:43:00,74.3,68.0,29.95,East,98,1.0,3.0,80,0.00,,,0.00,weatherlink.com 1.10,2013-07-25 05:43:00,
2013-07-25 00:58:00,73.7,67.0,29.95,North,358,1.0,2.0,80,0.00,,,0.00,weatherlink.com 1.10,2013-07-25 05:58:00,
2013-07-25 01:13:00,73.3,67.0,29.95,NNE,29,1.0,3.0,80,0.00,,,0.00,weatherlink.com 1.10,2013-07-25 06:13:00,
2013-07-25 01:28:00,72.8,67.0,29.95,East,85,0.0,2.0,81,0.00,,,0.00,weatherlink.com 1.10,2013-07-25 06:28:00,
2013-07-25 01:43:00,72.4,66.0,29.95,NNE,30,0.0,1.0,81,0.00,,,0.00,weatherlink.com 1.10,2013-07-25 06:43:00,
2013-07-25 01:58:00,71.8,66.0,29.95,ENE,57,0.0,1.0,82,0.00,,,0.00,weatherlink.com 1.10,2013-07-25 06:58:00,
2013-07-25 02:13:00,71.3,66.0,29.95,North,359,0.0,1.0,83,0.00,,,0.00,weatherlink.com 1.10,2013-07-25 07:13:00,
2013-07-25 02:28:00,70.9,66.0,29.95,NE,54,0.0,1.0,84,0.00,,,0.00,weatherlink.com 1.10,2013-07-25 07:28:00,
2013-07-25 02:43:00,70.5,66.0,29.95,North,11,0.0,1.0,85,0.00,,,0.00,weatherlink.com 1.10,2013-07-25 07:43:00,
2013-07-25 02:58:00,70.0,65.0,29.95,NNE,12,0.0,1.0,85,0.00,,,0.00,weatherlink.com 1.10,2013-07-25 07:58:00,
2013-07-25 03:13:00,69.5,65.0,29.95,NNE,12,0.0,1.0,86,0.00,,,0.00,weatherlink.com 1.10,2013-07-25 08:13:00,
2013-07-25 03:28:00,69.0,65.0,29.95,ENE,71,0.0,1.0,87,0.00,,,0.00,weatherlink.com 1.10,2013-07-25 08:28:00,
2013-07-25 03:43:00,68.6,65.0,29.95,North,354,0.0,2.0,87,0.00,,,0.00,weatherlink.com 1.10,2013-07-25 08:43:00,
2013-07-25 03:59:00,68.3,65.0,29.95,ENE,74,0.0,2.0,88,0.00,,,0.00,weatherlink.com 1.10,2013-07-25 08:59:00,
2013-07-25 04:14:00,68.1,65.0,29.96,NNW,340,0.0,2.0,88,0.00,,,0.00,weatherlink.com 1.10,2013-07-25 09:14:00,
2013-07-25 04:29:00,67.7,64.0,29.96,North,1,0.0,2.0,88,0.00,,,0.00,weatherlink.com 1.10,2013-07-25 09:29:00,
2013-07-25 04:44:00,67.5,64.0,29.97,North,4,1.0,2.0,88,0.00,,,0.00,weatherlink.com 1.10,2013-07-25 09:44:00,
2013-07-25 04:59:00,67.3,64.0,29.97,NE,47,1.0,2.0,88,0.00,,,0.00,weatherlink.com 1.10,2013-07-25 09:59:00,
2013-07-25 05:14:00,66.9,64.0,29.98,North,9,0.0,1.0,89,0.00,,,0.00,weatherlink.com 1.10,2013-07-25 10:14:00,
2013-07-25 05:29:00,66.7,63.0,29.98,NNW,348,0.0,1.0,89,0.00,,,0.00,weatherlink.com 1.10,2013-07-25 10:29:00,
2013-07-25 05:44:00,66.3,63.0,29.99,ENE,68,0.0,1.0,89,0.00,,,0.00,weatherlink.com 1.10,2013-07-25 10:44:00,
2013-07-25 05:59:00,66.0,63.0,29.99,ENE,68,0.0,1.0,90,0.00,,,0.00,weatherlink.com 1.10,2013-07-25 10:59:00,
2013-07-25 06:14:00,65.8,63.0,30.00,ENE,68,0.0,1.0,90,0.00,,,0.00,weatherlink.com 1.10,2013-07-25 11:14:00,
2013-07-25 06:29:00,65.5,63.0,30.00,ENE,68,0.0,0.0,90,0.00,,,0.00,weatherlink.com 1.10,2013-07-25 11:29:00,
2013-07-25 06:44:00,65.3,62.0,30.00,ENE,68,0.0,0.0,90,0.00,,,0.00,weatherlink.com 1.10,2013-07-25 11:44:00,
2013-07-25 06:59:00,65.8,63.0,30.01,NE,34,0.0,1.0,90,0.00,,,0.00,weatherlink.com 1.10,2013-07-25 11:59:00,
2013-07-25 07:14:00,67.0,63.0,30.01,NNE,32,1.0,2.0,87,0.00,,,0.00,weatherlink.com 1.10,2013-07-25 12:14:00,
2013-07-25 07:29:00,67.9,63.0,30.01,NE,53,1.0,4.0,85,0.00,,,0.00,weatherlink.com 1.10,2013-07-25 12:29:00,
2013-07-25 07:44:00,68.6,63.0,30.01,NNE,18,1.0,3.0,83,0.00,,,0.00,weatherlink.com 1.10,2013-07-25 12:44:00,
2013-07-25 07:59:00,70.9,64.0,30.01,East,98,1.0,4.0,79,0.00,,,0.00,weatherlink.com 1.10,2013-07-25 12:59:00,
2013-07-25 08:14:00,72.3,64.0,30.02,ESE,114,0.0,2.0,76,0.00,,,0.00,weatherlink.com 1.10,2013-07-25 13:14:00,
2013-07-25 08:29:00,72.9,64.0,30.02,North,356,1.0,4.0,74,0.00,,,0.00,weatherlink.com 1.10,2013-07-25 13:29:00,
2013-07-25 08:44:00,73.3,64.0,30.02,North,10,3.0,5.0,73,0.00,,,0.00,weatherlink.com 1.10,2013-07-25 13:44:00,
2013-07-25 08:59:00,74.7,65.0,30.03,WNW,284,1.0,3.0,72,0.00,,,0.00,weatherlink.com 1.10,2013-07-25 13:59:00,
2013-07-25 09:14:00,75.0,65.0,30.03,NNW,336,0.0,4.0,71,0.00,,,0.00,weatherlink.com 1.10,2013-07-25 14:14:00,
2013-07-25 09:29:00,75.7,64.0,30.03,NNW,346,0.0,3.0,68,0.00,,,0.00,weatherlink.com 1.10,2013-07-25 14:29:00,
2013-07-25 09:44:00,76.2,65.0,30.03,NW,316,0.0,4.0,68,0.00,,,0.00,weatherlink.com 1.10,2013-07-25 14:44:00,
2013-07-25 09:59:00,77.2,65.0,30.03,North,355,4.0,5.0,65,0.00,,,0.00,weatherlink.com 1.10,2013-07-25 14:59:00,
2013-07-25 10:14:00,77.4,64.0,30.03,NNW,346,2.0,5.0,64,0.00,,,0.00,weatherlink.com 1.10,2013-07-25 15:14:00,
2013-07-25 10:29:00,77.8,63.0,30.03,WNW,285,3.0,5.0,60,0.00,,,0.00,weatherlink.com 1.10,2013-07-25 15:29:00,
2013-07-25 10:44:00,77.9,63.0,30.04,NE,42,3.0,9.0,60,0.00,,,0.00,weatherlink.com 1.10,2013-07-25 15:44:00,
2013-07-25 10:59:00,78.5,64.0,30.04,NNW,342,4.0,6.0,61,0.00,,,0.00,weatherlink.com 1.10,2013-07-25 15:59:00,
2013-07-25 11:14:00,78.5,63.0,30.05,NE,41,2.0,6.0,60,0.00,,,0.00,weatherlink.com 1.10,2013-07-25 16:14:00,
2013-07-25 11:29:00,79.0,64.0,30.05,SSE,166,0.0,4.0,60,0.00,,,0.00,weatherlink.com 1.10,2013-07-25 16:29:00,
2013-07-25 11:44:00,79.6,63.0,30.05,West,274,1.0,4.0,58,0.00,,,0.00,weatherlink.com 1.10,2013-07-25 16:44:00,
2013-07-25 11:59:00,80.4,64.0,30.05,SSW,208,0.0,3.0,57,0.00,,,0.00,weatherlink.com 1.10,2013-07-25 16:59:00,
2013-07-25 12:14:00,81.3,64.0,30.06,West,278,1.0,3.0,55,0.00,,,0.00,weatherlink.com 1.10,2013-07-25 17:14:00,
2013-07-25 12:29:00,81.2,63.0,30.05,NE,56,4.0,7.0,55,0.00,,,0.00,weatherlink.com 1.10,2013-07-25 17:29:00,
2013-07-25 12:44:00,81.0,63.0,30.05,East,101,2.0,6.0,54,0.00,,,0.00,weatherlink.com 1.10,2013-07-25 17:44:00,
2013-07-25 13:00:00,81.7,63.0,30.05,WNW,300,1.0,3.0,53,0.00,,,0.00,weatherlink.com 1.10,2013-07-25 18:00:00,
2013-07-25 13:15:00,81.8,62.0,30.05,NW,326,0.0,7.0,51,0.00,,,0.00,weatherlink.com 1.10,2013-07-25 18:15:00,
2013-07-25 13:30:00,82.1,63.0,30.04,West,276,0.0,5.0,53,0.00,,,0.00,weatherlink.com 1.10,2013-07-25 18:30:00,
2013-07-25 13:45:00,81.7,62.0,30.04,North,352,0.0,6.0,52,0.00,,,0.00,weatherlink.com 1.10,2013-07-25 18:45:00,
2013-07-25 14:00:00,82.2,62.0,30.04,West,280,2.0,7.0,50,0.00,,,0.00,weatherlink.com 1.10,2013-07-25 19:00:00,
2013-07-25 14:15:00,82.6,63.0,30.04,ENE,78,1.0,4.0,51,0.00,,,0.00,weatherlink.com 1.10,2013-07-25 19:15:00,
2013-07-25 14:30:00,83.2,63.0,30.04,East,101,0.0,5.0,51,0.00,,,0.00,weatherlink.com 1.10,2013-07-25 19:30:00,
2013-07-25 14:45:00,83.9,64.0,30.04,WSW,253,2.0,3.0,52,0.00,,,0.00,weatherlink.com 1.10,2013-07-25 19:45:00,
2013-07-25 15:00:00,84.0,64.0,30.04,West,280,1.0,4.0,51,0.00,,,0.00,weatherlink.com 1.10,2013-07-25 20:00:00,
2013-07-25 15:15:00,83.0,62.0,30.04,NNW,342,0.0,4.0,50,0.00,,,0.00,weatherlink.com 1.10,2013-07-25 20:15:00,
2013-07-25 15:30:00,83.3,64.0,30.04,North,358,1.0,5.0,52,0.00,,,0.00,weatherlink.com 1.10,2013-07-25 20:30:00,
2013-07-25 15:45:00,83.0,65.0,30.04,SSW,205,0.0,4.0,54,0.00,,,0.00,weatherlink.com 1.10,2013-07-25 20:45:00,
2013-07-25 16:00:00,83.8,65.0,30.04,North,7,2.0,5.0,53,0.00,,,0.00,weatherlink.com 1.10,2013-07-25 21:00:00,
2013-07-25 16:15:00,83.2,65.0,30.04,North,358,1.0,3.0,54,0.00,,,0.00,weatherlink.com 1.10,2013-07-25 21:15:00,
2013-07-25 16:30:00,82.7,65.0,30.05,NNE,26,2.0,4.0,55,0.00,,,0.00,weatherlink.com 1.10,2013-07-25 21:30:00,
2013-07-25 16:45:00,81.8,63.0,30.05,SSW,211,0.0,3.0,54,0.00,,,0.00,weatherlink.com 1.10,2013-07-25 21:45:00,
2013-07-25 17:00:00,81.0,63.0,30.05,North,358,1.0,3.0,55,0.00,,,0.00,weatherlink.com 1.10,2013-07-25 22:00:00,
2013-07-25 17:15:00,80.4,62.0,30.04,West,269,1.0,4.0,54,0.00,,,0.00,weatherlink.com 1.10,2013-07-25 22:15:00,
2013-07-25 17:30:00,80.1,62.0,30.04,North,10,2.0,5.0,54,0.00,,,0.00,weatherlink.com 1.10,2013-07-25 22:30:00,
2013-07-25 17:45:00,80.6,63.0,30.04,WSW,255,1.0,5.0,56,0.00,,,0.00,weatherlink.com 1.10,2013-07-25 22:45:00,
2013-07-25 18:00:00,81.9,65.0,30.03,NNW,338,3.0,5.0,56,0.00,,,0.00,weatherlink.com 1.10,2013-07-25 23:00:00,
2013-07-25 18:15:00,81.0,64.0,30.03,SW,219,1.0,4.0,57,0.00,,,0.00,weatherlink.com 1.10,2013-07-25 23:15:00,
2013-07-25 18:30:00,79.6,64.0,30.03,WSW,245,1.0,3.0,60,0.00,,,0.00,weatherlink.com 1.10,2013-07-25 23:30:00,
2013-07-25 18:45:00,78.4,64.0,30.04,SSW,203,1.0,2.0,62,0.00,,,0.00,weatherlink.com 1.10,2013-07-25 23:45:00,
2013-07-25 19:00:00,78.4,65.0,30.03,East,82,0.0,2.0,63,0.00,,,0.00,weatherlink.com 1.10,2013-07-26 00:00:00,
2013-07-25 19:15:00,78.2,64.0,30.02,WNW,301,0.0,2.0,62,0.00,,,0.00,weatherlink.com 1.10,2013-07-26 00:15:00,
2013-07-25 19:30:00,77.6,65.0,30.03,NNE,13,0.0,1.0,65,0.00,,,0.00,weatherlink.com 1.10,2013-07-26 00:30:00,
2013-07-25 19:45:00,76.8,65.0,30.03,NNE,13,0.0,1.0,68,0.00,,,0.00,weatherlink.com 1.10,2013-07-26 00:45:00,
2013-07-25 20:00:00,75.9,65.0,30.03,North,358,0.0,1.0,68,0.00,,,0.00,weatherlink.com 1.10,2013-07-26 01:00:00,
2013-07-25 20:15:00,74.8,64.0,30.03,West,269,0.0,2.0,70,0.00,,,0.00,weatherlink.com 1.10,2013-07-26 01:15:00,
2013-07-25 20:30:00,74.3,64.0,30.03,WSW,252,0.0,1.0,71,0.00,,,0.00,weatherlink.com 1.10,2013-07-26 01:30:00,
2013-07-25 20:45:00,73.8,64.0,30.04,WSW,255,1.0,2.0,72,0.00,,,0.00,weatherlink.com 1.10,2013-07-26 01:45:00,
2013-07-25 21:00:00,73.6,64.0,30.04,West,262,0.0,1.0,72,0.00,,,0.00,weatherlink.com 1.10,2013-07-26 02:00:00,
2013-07-25 21:15:00,73.3,64.0,30.04,NNW,329,0.0,1.0,72,0.00,,,0.00,weatherlink.com 1.10,2013-07-26 02:15:00,
2013-07-25 21:30:00,72.9,64.0,30.05,West,263,0.0,1.0,73,0.00,,,0.00,weatherlink.com 1.10,2013-07-26 02:30:00,
2013-07-25 21:45:00,72.4,63.0,30.05,West,263,0.0,1.0,73,0.00,,,0.00,weatherlink.com 1.10,2013-07-26 02:45:00,
2013-07-25 22:00:00,71.4,64.0,30.05,West,264,0.0,0.0,76,0.00,,,0.00,weatherlink.com 1.10,2013-07-26 03:00:00,
2013-07-25 22:15:00,70.7,64.0,30.05,West,263,0.0,0.0,78,0.00,,,0.00,weatherlink.com 1.10,2013-07-26 03:15:00,
2013-07-25 22:30:00,69.6,64.0,30.05,West,263,0.0,0.0,82,0.00,,,0.00,weatherlink.com 1.10,2013-07-26 03:30:00,
2013-07-25 22:45:00,68.5,63.0,30.04,West,263,0.0,0.0,83,0.00,,,0.00,weatherlink.com 1.10,2013-07-26 03:45:00,
2013-07-25 23:00:00,67.8,64.0,30.04,West,263,0.0,0.0,86,0.00,,,0.00,weatherlink.com 1.10,2013-07-26 04:00:00,
2013-07-25 23:15:00,67.2,64.0,30.03,West,263,0.0,0.0,88,0.00,,,0.00,weatherlink.com 1.10,2013-07-26 04:15:00,
2013-07-25 23:30:00,66.7,63.0,30.03,West,263,0.0,0.0,88,0.00,,,0.00,weatherlink.com 1.10,2013-07-26 04:30:00,
2013-07-25 23:45:00,66.5,63.0,30.03,West,263,0.0,0.0,89,0.00,,,0.00,weatherlink.com 1.10,2013-07-26 04:45:00,